Stations météo

réclame
Mon MeteoGroup
Woensdrecht, Pays-Bas (6340): Température de l'air & dewpoint: 13.06.2018 16:00:00 - 19.06.2018 16:00:00 (CEST)Woensdrecht, Pays-Bas (6340): Température de l'air 5cm: 13.06.2018 16:00:00 - 19.06.2018 16:00:00 (CEST)Woensdrecht, Pays-Bas (6340): Vitesse du vent & gusts: 13.06.2018 16:00:00 - 19.06.2018 16:00:00 (CEST)Woensdrecht, Pays-Bas (6340): Direction du vent: 13.06.2018 16:00:00 - 19.06.2018 16:00:00 (CEST)Woensdrecht, Pays-Bas (6340): reduced air pressure: 13.06.2018 16:00:00 - 19.06.2018 16:00:00 (CEST)Woensdrecht, Pays-Bas (6340): visibility: 13.06.2018 16:00:00 - 19.06.2018 16:00:00 (CEST)Woensdrecht, Pays-Bas (6340): Quantités de précipitations: 13.06.2018 16:00:00 - 19.06.2018 16:00:00 (CEST)
Date & Time tt [°C] td [°C] tt 5cm [°C] ff [km/h] ff [knt] fx [km/h] fx [knt] dd ppp [hPa] vv [km] rr [mm]
19.06.2018 16:00:00 19,8 15,4 21,1 13 7 22 12 WSW 1024,4 10 0,0
19.06.2018 15:00:00 19,5 15,0 20,5 15 8 25 14 WSW 1024,5 10 0,0
19.06.2018 14:00:00 19,8 15,5 20,9 16 9 25 14 WSW 1024,5 10 0,0
19.06.2018 13:00:00 18,8 15,3 19,3 15 8 22 12 W 1024,4 10 0,0
19.06.2018 12:00:00 19,1 15,6 20,0 16 9 29 16 W 1024,0 10 0,0
19.06.2018 11:00:00 19,0 15,4 19,9 21 11 32 18 W 1023,8 10 0,0
19.06.2018 10:00:00 18,3 15,9 18,6 16 9 25 14 WSW 1023,6 10 0,0
19.06.2018 09:00:00 17,0 15,6 17,1 16 9 29 16 WSW 1023,2 10 0,0
19.06.2018 08:00:00 16,6 15,2 16,5 16 9 25 14 WSW 1022,7 10 0,0
19.06.2018 07:00:00 16,2 14,8 16,0 15 8 22 12 SW 1022,4 10 0,0
19.06.2018 06:00:00 15,4 14,3 15,2 9 5 14 8 SW 1022,0 10 0,0
19.06.2018 05:00:00 15,1 14,0 14,9 11 6 22 12 SW 1021,6 11 0,0
19.06.2018 04:00:00 14,4 13,3 14,3 14 8 25 14 SW 1021,4 12 0,0
19.06.2018 03:00:00 14,1 12,5 13,4 11 6 22 12 SW 1021,2 17 0,0
19.06.2018 02:00:00 14,3 11,6 13,5 14 8 25 14 SW 1020,9 25 0,0
19.06.2018 01:00:00 14,9 11,2 14,0 15 8 25 14 SW 1020,9 10 0,0
19.06.2018 00:00:00 15,4 11,6 14,1 11 6 25 14 SW 1021,1 10 0,0
18.06.2018 23:00:00 15,8 12,1 14,7 11 6 18 10 SW 1021,3 10 0,0
18.06.2018 22:00:00 16,6 12,2 15,3 11 6 25 14 SW 1020,8 10 0,0
18.06.2018 21:00:00 17,7 11,7 17,2 21 11 32 18 WSW 1020,7 10 0,0
18.06.2018 20:00:00 19,4 12,2 19,9 22 12 32 18 WSW 1020,2 10 0,0
18.06.2018 19:00:00 18,8 12,3 18,8 22 12 36 19 WSW 1020,3 10 0,0
18.06.2018 18:00:00 20,0 12,8 20,5 26 14 40 21 WSW 1020,3 10 0,0
18.06.2018 17:00:00 17,8 13,2 18,5 24 13 40 21 WSW 1020,6 10 0,0
18.06.2018 16:00:00 18,0 13,1 18,4 29 16 43 23 WSW 1020,7 44 0,0
18.06.2018 15:00:00 19,4 13,5 19,2 29 16 43 23 WSW 1020,3 10 0,0
18.06.2018 14:00:00 19,2 14,2 20,0 22 12 36 19 WSW 1020,2 10 0,0
18.06.2018 13:00:00 18,7 14,6 18,1 24 13 36 19 W 1020,2 10 0,0
18.06.2018 12:00:00 18,8 15,4 18,3 18 10 32 18 WSW 1019,7 10 0,0
18.06.2018 11:00:00 17,5 15,0 17,5 21 11 32 18 SW 1019,6 10 0,0
18.06.2018 10:00:00 16,9 14,5 16,9 18 10 32 18 SW 1019,5 10 0,0
18.06.2018 09:00:00 16,5 14,2 16,7 15 8 29 16 SW 1019,0 10 0,0
18.06.2018 08:00:00 16,1 13,9 16,0 16 9 29 16 SW 1018,9 10 0,0
18.06.2018 07:00:00 15,5 13,4 15,5 15 8 29 16 SW 1019,0 10 0,0
18.06.2018 06:00:00 15,8 12,6 15,6 16 9 29 16 SW 1018,8 10 0,0
18.06.2018 05:00:00 16,0 12,2 - 15 8 25 14 SW 1018,5 10 0,0
18.06.2018 04:00:00 15,9 12,0 - 15 8 29 16 SW 1018,6 10 0,0
18.06.2018 03:00:00 15,8 11,9 - 11 6 29 16 SSW 1018,9 10 0,0
18.06.2018 02:00:00 15,3 11,8 - 13 7 25 14 SW 1019,2 10 0,0
18.06.2018 01:00:00 15,2 11,5 - 13 7 32 18 SW 1019,5 10 0,0
18.06.2018 00:00:00 15,5 11,0 - 22 12 36 19 SW 1019,5 10 0,0
17.06.2018 23:00:00 15,9 10,4 - 13 7 22 12 WSW 1019,5 10 0,0
17.06.2018 22:00:00 16,2 10,6 - 11 6 25 14 SW 1019,2 10 0,0
17.06.2018 21:00:00 16,5 10,7 - 11 6 22 12 WSW 1019,1 10 0,0
17.06.2018 20:00:00 16,5 12,7 - 13 7 18 10 WSW 1018,7 10 0,0
17.06.2018 19:00:00 16,5 13,4 - 5 3 14 8 WSW 1018,5 10 0,0
17.06.2018 18:00:00 15,6 13,0 - 9 5 22 12 WSW 1018,7 10 0,0
17.06.2018 17:00:00 14,4 12,8 - 15 8 25 14 W 1019,1 10 0,2
17.06.2018 16:00:00 14,3 13,0 - 13 7 36 19 WSW 1018,9 9 0,4
17.06.2018 15:00:00 17,6 9,6 - 18 10 32 18 WSW 1018,1 10 0,0
17.06.2018 14:00:00 16,6 9,8 - 18 10 32 18 SW 1018,0 10 0,0
17.06.2018 13:00:00 16,4 9,8 - 18 10 32 18 SW 1017,8 10 0,0
17.06.2018 12:00:00 16,4 9,5 - 22 12 40 21 WSW 1017,5 10 0,0
17.06.2018 11:00:00 16,0 11,0 - 22 12 - - WSW - 10 -
17.06.2018 10:00:00 15,8 11,2 - 21 11 32 18 WSW 1017,2 10 0,0
17.06.2018 09:00:00 15,0 11,0 - 18 10 - - SW - 10 -
17.06.2018 08:00:00 14,8 10,9 - 18 10 29 16 SW 1016,2 10 0,0
17.06.2018 07:00:00 14,0 11,0 - 18 10 - - SW - 10 -
17.06.2018 06:00:00 14,0 10,0 - 22 12 - - WSW - 10 -
17.06.2018 05:00:00 14,0 10,0 - 21 11 - - SW - 10 -
17.06.2018 04:00:00 14,0 11,0 - 16 9 - - SW - 10 -
17.06.2018 03:00:00 14,0 10,0 - 13 7 - - SW - 10 -
17.06.2018 02:00:00 15,0 10,0 - 16 9 - - SW - 10 -
17.06.2018 01:00:00 16,0 10,0 - 15 8 - - SW - 10 -
17.06.2018 00:00:00 16,0 10,0 - 11 6 - - SW - 10 -
16.06.2018 23:00:00 16,0 9,0 - 15 8 - - SW - 10 -
16.06.2018 22:00:00 17,0 9,0 - 21 11 - - WSW - 10 -
16.06.2018 21:00:00 17,0 11,0 - 15 8 - - W - 10 -
16.06.2018 20:00:00 19,0 11,0 - 21 11 - - W - 10 -
16.06.2018 19:00:00 18,8 11,2 19,6 13 7 32 18 W 1015,1 10 0,0
16.06.2018 18:00:00 19,1 10,6 20,7 22 12 32 18 W 1015,4 10 0,0
16.06.2018 17:00:00 20,1 11,2 21,2 21 11 32 18 WNW 1015,1 10 0,0
16.06.2018 16:00:00 20,1 12,4 20,9 22 12 32 18 WNW 1014,9 10 0,0
16.06.2018 15:00:00 19,9 10,5 20,8 22 12 32 18 WSW 1014,7 10 0,0
16.06.2018 14:00:00 21,0 10,8 23,0 21 11 32 18 SW 1014,8 10 0,0
16.06.2018 13:00:00 19,9 10,2 22,2 15 8 29 16 SSW 1015,1 10 0,0
16.06.2018 12:00:00 17,9 12,0 19,8 13 7 29 16 SSW 1015,6 10 0,0
16.06.2018 11:00:00 17,5 11,8 18,5 15 8 25 14 SW 1015,6 10 0,0
16.06.2018 10:00:00 15,9 9,7 16,4 13 7 22 12 SW 1015,6 10 0,0
16.06.2018 09:00:00 15,1 9,8 15,6 9 5 18 10 SW 1015,2 10 0,0
16.06.2018 08:00:00 14,5 9,2 14,6 11 6 22 12 SW 1015,4 10 0,0
16.06.2018 07:00:00 14,4 9,4 13,7 11 6 18 10 SSW 1015,2 25 0,0
16.06.2018 06:00:00 13,9 10,6 13,4 11 6 18 10 WSW 1015,5 18 0,0
16.06.2018 05:00:00 13,5 11,6 11,8 0 0 7 4 N 1015,5 11 0,0
16.06.2018 04:00:00 13,6 12,7 11,6 4 2 7 4 WSW 1015,7 12 0,0
16.06.2018 03:00:00 14,7 13,9 12,8 4 2 11 6 WSW 1015,8 9 0,0
16.06.2018 02:00:00 14,1 13,7 11,8 4 2 4 2 WSW 1016,2 8 0,0
16.06.2018 01:00:00 14,9 14,0 12,7 4 2 4 2 WSW 1016,0 11 0,0
16.06.2018 00:00:00 16,4 14,6 15,6 2 1 7 4 NW 1016,2 10 0,0
15.06.2018 23:00:00 16,6 14,6 14,7 4 2 11 6 - 1016,1 10 0,0
15.06.2018 22:00:00 17,5 15,4 16,8 9 5 22 12 WNW 1016,0 10 0,0
15.06.2018 21:00:00 19,0 15,6 18,8 13 7 22 12 W 1015,9 10 0,0
15.06.2018 20:00:00 21,3 14,0 21,6 9 5 14 8 N 1015,7 10 0,0
15.06.2018 19:00:00 22,2 14,3 22,3 8 4 18 10 WNW 1015,7 10 0,0
15.06.2018 18:00:00 22,9 12,1 23,3 11 6 18 10 WNW 1015,8 10 0,0
15.06.2018 17:00:00 23,3 11,4 23,3 9 5 18 10 SW 1015,7 10 0,0
15.06.2018 16:00:00 23,4 12,5 24,2 9 5 22 12 SW 1016,1 10 0,0
15.06.2018 15:00:00 23,0 11,1 25,7 5 3 22 12 - 1016,3 10 0,0
15.06.2018 14:00:00 22,5 11,1 24,5 8 4 18 10 SSW 1016,3 10 0,0
15.06.2018 13:00:00 21,1 12,7 22,2 8 4 18 10 - 1016,7 10 0,0
15.06.2018 12:00:00 20,7 13,3 23,3 5 3 18 10 SW 1016,7 10 0,0
15.06.2018 11:00:00 19,6 13,6 21,2 9 5 18 10 SSW 1016,7 10 0,0
15.06.2018 10:00:00 18,0 13,7 20,1 8 4 14 8 S 1016,8 10 0,0
15.06.2018 09:00:00 16,6 13,3 17,8 4 2 11 6 - 1016,6 10 0,0
15.06.2018 08:00:00 14,5 12,9 14,4 2 1 4 2 - 1016,5 10 0,0
15.06.2018 07:00:00 12,7 12,7 12,2 2 1 7 4 - 1016,2 8 0,0
15.06.2018 06:00:00 10,2 10,2 8,5 4 2 7 4 S 1016,1 10 0,0
15.06.2018 05:00:00 9,1 9,1 5,6 4 2 4 2 - 1016,0 1,3 0,0
15.06.2018 04:00:00 9,5 9,5 6,4 2 1 7 4 SW 1015,8 7 0,0
15.06.2018 03:00:00 11,6 11,6 7,2 2 1 7 4 - 1015,8 0,7 0,0
15.06.2018 02:00:00 13,3 13,2 8,2 5 3 7 4 W 1015,9 8 0,0
15.06.2018 01:00:00 13,5 12,8 11,6 5 3 11 6 SW 1016,0 10 0,0
15.06.2018 00:00:00 15,5 14,2 14,6 5 3 14 8 SW 1016,0 10 0,0
14.06.2018 23:00:00 15,8 14,6 15,2 8 4 14 8 SW 1015,7 10 0,0
14.06.2018 22:00:00 16,3 14,6 15,8 8 4 18 10 SW 1015,2 10 0,0
14.06.2018 21:00:00 16,3 14,7 16,0 11 6 25 14 SW 1014,6 10 0,1
14.06.2018 20:00:00 16,5 14,6 16,5 15 8 25 14 WSW 1014,4 10 0,0
14.06.2018 19:00:00 16,2 14,6 16,0 9 5 25 14 SW 1014,1 6 0,0
14.06.2018 18:00:00 16,4 13,9 16,3 16 9 32 18 SW 1014,0 4,3 0,0
14.06.2018 17:00:00 17,0 13,0 17,0 18 10 36 19 SW 1013,7 10 0,0
14.06.2018 16:00:00 18,6 12,3 18,9 15 8 40 21 SSW 1013,2 10 0,0
14.06.2018 15:00:00 18,5 12,2 18,8 26 14 40 21 SW 1013,7 10 0,1
14.06.2018 14:00:00 17,4 13,3 17,4 16 9 36 19 SSW 1013,3 10 0,2
14.06.2018 13:00:00 18,5 10,8 18,5 16 9 40 21 SSW 1013,5 10 0,0
14.06.2018 12:00:00 19,1 10,9 19,6 18 10 40 21 SSW 1013,7 10 0,0
14.06.2018 11:00:00 18,8 11,0 19,8 24 13 40 21 SW 1013,8 10 0,0
14.06.2018 10:00:00 18,4 12,2 18,7 16 9 29 16 SSW 1013,9 10 0,0
14.06.2018 09:00:00 17,1 10,9 18,0 15 8 29 16 SSW 1014,1 10 0,0
14.06.2018 08:00:00 15,6 10,9 15,4 11 6 25 14 SSW 1014,3 10 0,0
14.06.2018 07:00:00 11,7 10,4 10,6 5 3 14 8 S 1014,6 10 0,0
14.06.2018 06:00:00 9,9 9,2 8,2 5 3 11 6 - 1015,0 10 0,0
14.06.2018 05:00:00 7,2 7,0 3,5 2 1 4 2 S 1015,4 10 0,0
14.06.2018 04:00:00 7,6 7,3 3,5 0 0 4 2 N 1016,0 10 0,0
14.06.2018 03:00:00 7,7 7,3 4,1 2 1 4 2 ENE 1016,4 10 0,0
14.06.2018 02:00:00 8,1 7,8 4,8 2 1 4 2 ENE 1016,7 10 0,0
14.06.2018 01:00:00 8,8 8,2 4,9 0 0 4 2 N 1017,1 10 0,0
14.06.2018 00:00:00 9,4 9,1 5,9 2 1 4 2 ENE 1017,3 10 0,0
13.06.2018 23:00:00 10,7 10,1 6,8 2 1 4 2 - 1017,4 10 0,0
13.06.2018 22:00:00 12,0 10,5 9,9 0 0 7 4 N 1017,5 10 0,0
13.06.2018 21:00:00 15,9 10,0 15,6 5 3 14 8 WNW 1017,3 10 0,0
13.06.2018 20:00:00 16,9 10,2 17,3 13 7 22 12 WNW 1017,5 10 0,0
13.06.2018 19:00:00 17,9 10,1 19,1 15 8 25 14 W 1017,4 10 0,0
13.06.2018 18:00:00 18,8 10,5 19,8 13 7 25 14 W 1017,3 10 0,0
13.06.2018 17:00:00 17,5 8,6 17,7 8 4 18 10 N 1017,8 10 0,0
13.06.2018 16:00:00 18,0 8,7 19,8 13 7 29 16 - 1017,7 10 0,0

tt = Température de l'air
td = dewpoint
tt 5cm = Température de l'air 5cm
ff = Vitesse du vent
fx = gusts
dd = Direction du vent
ppp = reduced air pressure
vv = visibility
rr = Quantités de précipitations

stations d'obs. à proximité